User: anonymous   Login
Location: Lamoine Observatory
(44.4551°N, 68.3470°W)
Time: 20:12:02
(UTC-05:00)
Language:

Cosmos 1674 Rocket - Orbit

View from above orbital plane
View from above orbital plane
View from above satellite
View from above satellite

Ground track
Ground track

The orbit data is extracted from the following two-line orbital elements,

1 15945U 85069B   17321.62326871  .00000121  00000-0  11559-4 0  9990
2 15945  82.5273 349.3267 0020917 132.8543 227.4434 14.83949803743786
Epoch (UTC): 17 November 2017 14:57:30
Eccentricity: 0.0020917
inclination: 82.5273°
perigee height: 602 km
apogee height: 631 km
right ascension of ascending node: 349.3267°
argument of perigee: 132.8543°
revolutions per day: 14.83949803
mean anomaly at epoch: 227.4434°
orbit number at epoch: 74378

The dashed part of the orbit path shows where the satellite is in the earth's shadow,  

DLR